QPF
0.00 0.00 0.00 0.00 0.00 0.00 0.00 0.00 0.00 0.00 0.00 0.00 0.00 0.00 0.00 0.00 0.00 0.00 0.00 0.00 0.00 0.00 0.00 0.00 0.00 0.00 0.00 0.00 0.00 0.00 0.00 0.00 0.00 0.00 0.00 0.00 0.00 0.00 0.00 0.00 0.00 0.00 0.00 0.00 0.01
0.00 0.00 0.00 0.00 0.00 0.00 0.00 0.00 0.00 0.00 0.00 0.00 0.00 0.00 0.00 0.00 0.00 0.00 0.00 0.00 0.00 0.00 0.00 0.00 0.00 0.00 0.00 0.00 0.00 0.00 0.00 0.00 0.00 0.00 0.00 0.00 0.00 0.00 0.00 0.00 0.00 0.00 0.00 0.00 0.00
0.00 0.00 0.00 0.00 0.00 0.00 0.00 0.00 0.00 0.00 0.00 0.00 0.00 0.00 0.00 0.00 0.00 0.00 0.00 0.00 0.00 0.00 0.00 0.00 0.00 0.00 0.00 0.00 0.00 0.00 0.00 0.00 0.00 0.00 0.00 0.00 0.00 0.00 0.00 0.00 0.00 0.00 0.00 0.00 0.01
0.00 0.00 0.00 0.00 0.00 0.00 0.00 0.00 0.00 0.00 0.00 0.00 0.00 0.00 0.00 0.00 0.00 0.00 0.00 0.00 0.00 0.00 0.00 0.00 0.00 0.00 0.00 0.00 0.00 0.00 0.00 0.00 0.00 0.00 0.00 0.00 0.00 0.00 0.00 0.00 0.00 0.00 0.00 0.00 0.00
0.00 0.00 0.00 0.00 0.00 0.00 0.00 0.00 0.00 0.00 0.00 0.00 0.00 0.00 0.00 0.00 0.00 0.00 0.00 0.00 0.00 0.00 0.00 0.00 0.00 0.00 0.00 0.00 0.00 0.00 0.00 0.00 0.00 0.00 0.00 0.00 0.00 0.00 0.00 0.00 0.00 0.00 0.00 0.00 0.00
0.00 0.00 0.00 0.00 0.00 0.00 0.00 0.00 0.00 0.00 0.00 0.00 0.00 0.00 0.00 0.00 0.00 0.00 0.00 0.00 0.00 0.00 0.00 0.00 0.00 0.00 0.00 0.00 0.00 0.00 0.00 0.00 0.00 0.00 0.00 0.00 0.00 0.00 0.00 0.00 0.00 0.00 0.00 0.00 0.00
0.00 0.00 0.00 0.00 0.00 0.00 0.00 0.00 0.00 0.00 0.00 0.00 0.00 0.00 0.00 0.00 0.00 0.00 0.00 0.00 0.00 0.00 0.00 0.00 0.00 0.00 0.00 0.00 0.00 0.00 0.00 0.00 0.00 0.00 0.00 0.00 0.00 0.00 0.00 0.00 0.00 0.00 0.00 0.01 0.00
0.00 0.00 0.00 0.00 0.00 0.00 0.00 0.00 0.00 0.00 0.00 0.00 0.00 0.00 0.00 0.00 0.00 0.00 0.00 0.00 0.00 0.00 0.00 0.00 0.00 0.00 0.00 0.00 0.00 0.00 0.00 0.00 0.00 0.00 0.00 0.00 0.00 0.00 0.00 0.00 0.00 0.00 0.00 0.00 0.00
0.00 0.00 0.00 0.00 0.00 0.00 0.00 0.00 0.00 0.00 0.00 0.00 0.00 0.00 0.00 0.00 0.00 0.00 0.00 0.00 0.00 0.00 0.00 0.00 0.00 0.00 0.00 0.00 0.00 0.00 0.00 0.00 0.00 0.00 0.00 0.00 0.00 0.00 0.00 0.00 0.00 0.00 0.00 0.00 0.00
0.00 0.00 0.00 0.00 0.00 0.00 0.00 0.00 0.00 0.00 0.00 0.00 0.00 0.00 0.00 0.00 0.00 0.00 0.00 0.00 0.00 0.00 0.00 0.00 0.00 0.00 0.00 0.00 0.00 0.00 0.00 0.00 0.00 0.00 0.00 0.00 0.00 0.00 0.00 0.00 0.00 0.00 0.00 0.00 0.00
0.00 0.00 0.00 0.00 0.00 0.00 0.00 0.00 0.00 0.00 0.00 0.00 0.00 0.00 0.00 0.00 0.00 0.00 0.00 0.00 0.00 0.00 0.00 0.00 0.00 0.00 0.00 0.00 0.00 0.00 0.00 0.00 0.00 0.00 0.00 0.00 0.00 0.00 0.00 0.00 0.00 0.00 0.00 0.00 0.00
0.00 0.00 0.00 0.00 0.00 0.00 0.00 0.00 0.00 0.00 0.00 0.00 0.00 0.00 0.00 0.00 0.00 0.00 0.00 0.00 0.00 0.00 0.00 0.00 0.00 0.00 0.00 0.00 0.00 0.00 0.00 0.00 0.00 0.00 0.00 0.00 0.00 0.00 0.00 0.00 0.00 0.00 0.00 0.00 0.00
0.00 0.00 0.00 0.00 0.00 0.00 0.00 0.00 0.00 0.00 0.00 0.00 0.00 0.00 0.00 0.00 0.00 0.00 0.00 0.00 0.00 0.00 0.00 0.00 0.00 0.00 0.00 0.00 0.00 0.00 0.00 0.00 0.00 0.00 0.00 0.00 0.00 0.00 0.00 0.00 0.00 0.00 0.00 0.00 0.00
0.00 0.00 0.00 0.00 0.00 0.00 0.00 0.00 0.00 0.00 0.00 0.00 0.00 0.00 0.00 0.00 0.00 0.00 0.00 0.00 0.00 0.00 0.00 0.00 0.00 0.00 0.00 0.00 0.00 0.00 0.00 0.00 0.00 0.00 0.00 0.00 0.00 0.00 0.00 0.00 0.00 0.00 0.00 0.00 0.00
0.00 0.00 0.00 0.00 0.00 0.00 0.00 0.00 0.00 0.00 0.00 0.00 0.00 0.00 0.00 0.00 0.00 0.00 0.00 0.00 0.00 0.00 0.00 0.00 0.00 0.00 0.00 0.00 0.00 0.00 0.00 0.00 0.00 0.00 0.00 0.00 0.00 0.00 0.00 0.00 0.00 0.00 0.00 0.00 0.00
0.00 0.00 0.00 0.00 0.00 0.00 0.00 0.00 0.00 0.00 0.00 0.00 0.00 0.00 0.00 0.00 0.00 0.00 0.00 0.00 0.00 0.00 0.00 0.00 0.00 0.00 0.00 0.00 0.00 0.00 0.00 0.00 0.00 0.00 0.00 0.00 0.00 0.00 0.00 0.00 0.00 0.00 0.00 0.00 0.00
0.00 0.00 0.00 0.00 0.00 0.00 0.00 0.00 0.00 0.00 0.00 0.00 0.00 0.00 0.00 0.00 0.00 0.00 0.00 0.00 0.00 0.00 0.00 0.00 0.00 0.00 0.00 0.00 0.00 0.00 0.00 0.00 0.00 0.00 0.00 0.00 0.00 0.00 0.00 0.00 0.00 0.00 0.00 0.00 0.00
0.00 0.00 0.00 0.00 0.00 0.00 0.00 0.00 0.00 0.00 0.00 0.00 0.00 0.00 0.00 0.00 0.00 0.00 0.00 0.00 0.00 0.00 0.00 0.00 0.00 0.00 0.00 0.00 0.00 0.00 0.00 0.00 0.00 0.00 0.00 0.00 0.00 0.00 0.00 0.00 0.00 0.00 0.00 0.00 0.00
0.00 0.00 0.00 0.00 0.00 0.00 0.00 0.00 0.00 0.00 0.00 0.00 0.00 0.00 0.00 0.00 0.00 0.00 0.00 0.00 0.00 0.00 0.00 0.00 0.00 0.00 0.00 0.00 0.00 0.00 0.00 0.00 0.00 0.00 0.00 0.00 0.00 0.00 0.00 0.00 0.00 0.00 0.00 0.00 0.00
0.00 0.00 0.00 0.00 0.00 0.00 0.00 0.00 0.00 0.00 0.00 0.00 0.00 0.00 0.00 0.00 0.00 0.00 0.00 0.00 0.00 0.00 0.00 0.00 0.00 0.00 0.00 0.00 0.00 0.00 0.00 0.00 0.00 0.00 0.00 0.00 0.00 0.00 0.00 0.00 0.00 0.00 0.00 0.00 0.00
0.00 0.00 0.00 0.00 0.00 0.00 0.00 0.00 0.00 0.00 0.00 0.00 0.00 0.00 0.00 0.00 0.00 0.00 0.00 0.00 0.00 0.00 0.00 0.00 0.00 0.00 0.00 0.00 0.00 0.00 0.00 0.00 0.00 0.00 0.00 0.00 0.00 0.01 0.00 0.00 0.00 0.00 0.00 0.00 0.00
0.00 0.00 0.00 0.00 0.00 0.00 0.00 0.00 0.00 0.00 0.00 0.00 0.00 0.00 0.00 0.00 0.00 0.00 0.00 0.00 0.00 0.00 0.00 0.00 0.00 0.00 0.00 0.00 0.00 0.00 0.00 0.00 0.00 0.00 0.01 0.01 0.00 0.01 0.00 0.00 0.00 0.00 0.00 0.00 0.00
0.00 0.00 0.00 0.00 0.00 0.00 0.00 0.00 0.00 0.00 0.00 0.00 0.00 0.00 0.00 0.00 0.00 0.00 0.00 0.00 0.00 0.00 0.00 0.00 0.00 0.00 0.00 0.00 0.00 0.00 0.00 0.00 0.00 0.01 0.00 0.01 0.00 0.00 0.00 0.00 0.00 0.00 0.00 0.00 0.00
0.00 0.00 0.00 0.00 0.00 0.00 0.00 0.00 0.00 0.00 0.00 0.00 0.00 0.00 0.00 0.00 0.00 0.00 0.00 0.00 0.00 0.00 0.00 0.00 0.00 0.00 0.00 0.00 0.00 0.00 0.00 0.00 0.01 0.01 0.00 0.00 0.00 0.00 0.00 0.00 0.00 0.00 0.00 0.00 0.00
0.02 0.00 0.00 0.00 0.00 0.00 0.00 0.00 0.00 0.00 0.00 0.00 0.00 0.00 0.00 0.00 0.00 0.00 0.00 0.00 0.00 0.00 0.00 0.00 0.00 0.00 0.00 0.00 0.00 0.00 0.00 0.00 0.01 0.00 0.01 0.00 0.00 0.00 0.00 0.00 0.00 0.00 0.00 0.00 0.00
0.05 0.01 0.00 0.00 0.00 0.00 0.00 0.00 0.00 0.00 0.00 0.00 0.00 0.00 0.00 0.00 0.00 0.00 0.00 0.00 0.00 0.00 0.00 0.00 0.00 0.00 0.00 0.00 0.00 0.00 0.00 0.00 0.00 0.00 0.00 0.00 0.00 0.00 0.00 0.00 0.00 0.00 0.00 0.00 0.00
0.04 0.00 0.01 0.02 0.01 0.00 0.00 0.00 0.00 0.00 0.00 0.00 0.00 0.00 0.00 0.00 0.00 0.00 0.00 0.00 0.00 0.00 0.00 0.00 0.00 0.00 0.00 0.00 0.00 0.00 0.00 0.00 0.00 0.00 0.00 0.00 0.00 0.00 0.00 0.00 0.00 0.00 0.00 0.00 0.00
MSLP
1024.08 1023.87 1023.52 1023.14 1022.98 1022.78 1022.37 1022.06 1021.95 1021.71 1021.44 1021.36 1021.04 1020.86 1020.80 1020.30 1019.56 1019.47 1019.88 1020.40 1019.60 1018.83 1018.02 1017.49 1017.01 1017.02 1016.78 1016.88 1016.79 1016.93 1017.71 1017.47 1016.39 1015.57 1014.76 1014.20 1013.54 1012.82 1012.43 1012.34 1012.53 1012.82 1013.26 1013.17 1013.85
1024.33 1024.03 1023.67 1023.43 1023.20 1023.01 1022.69 1022.38 1022.18 1021.79 1021.63 1021.30 1021.06 1020.91 1020.66 1020.41 1019.71 1020.25 1020.68 1020.01 1019.41 1018.91 1018.54 1018.26 1017.94 1017.59 1017.56 1017.29 1017.11 1017.25 1017.75 1017.26 1016.18 1015.61 1015.13 1014.54 1014.21 1013.55 1013.20 1013.13 1013.39 1013.48 1013.84 1013.88 1014.21
1024.39 1024.16 1023.87 1023.63 1023.42 1023.15 1022.79 1022.57 1022.35 1022.07 1021.67 1021.31 1021.11 1020.88 1020.55 1020.32 1020.02 1021.10 1020.62 1020.07 1019.59 1019.16 1018.80 1018.55 1018.28 1018.19 1018.18 1017.94 1017.83 1017.65 1017.70 1017.13 1016.71 1016.11 1015.49 1014.76 1014.29 1014.06 1013.79 1013.91 1014.05 1014.21 1014.40 1014.50 1014.59
1024.41 1024.29 1023.98 1023.79 1023.46 1023.20 1022.90 1022.61 1022.41 1022.15 1021.70 1021.34 1021.09 1020.71 1020.39 1020.55 1021.75 1021.46 1020.86 1020.41 1019.84 1019.35 1018.99 1018.92 1018.93 1019.24 1019.35 1019.22 1018.75 1018.42 1017.82 1017.71 1017.28 1016.56 1015.81 1015.42 1014.79 1014.59 1014.52 1014.39 1014.34 1014.02 1014.48 1014.70 1015.18
1024.55 1024.39 1024.20 1023.98 1023.56 1023.24 1022.90 1022.60 1022.34 1022.13 1021.68 1021.27 1021.11 1020.67 1020.50 1021.33 1022.13 1021.31 1021.01 1020.52 1020.11 1019.82 1019.83 1019.84 1020.09 1020.03 1020.18 1020.07 1019.39 1019.19 1018.72 1018.05 1017.58 1016.86 1016.26 1015.67 1015.31 1015.14 1014.91 1014.76 1014.47 1014.48 1014.96 1015.25 1015.65
1024.61 1024.29 1024.26 1024.11 1023.70 1023.20 1022.83 1022.57 1022.39 1022.17 1021.81 1021.29 1020.97 1020.84 1020.69 1021.70 1021.88 1021.52 1021.23 1020.87 1020.79 1020.58 1020.47 1020.23 1020.65 1020.51 1020.48 1020.27 1019.91 1019.84 1019.29 1018.54 1017.73 1017.16 1016.68 1016.37 1015.95 1015.63 1015.48 1015.27 1015.17 1015.29 1015.73 1016.05 1016.08
1024.65 1024.37 1024.30 1024.03 1023.66 1023.16 1022.89 1022.58 1022.30 1022.05 1021.80 1021.51 1021.20 1021.43 1021.64 1022.30 1021.73 1021.63 1021.26 1021.05 1020.94 1020.94 1020.77 1020.59 1020.56 1020.52 1020.64 1020.30 1020.10 1019.95 1019.58 1018.82 1018.25 1017.54 1017.06 1016.61 1016.62 1016.45 1016.10 1015.89 1016.03 1016.17 1016.39 1016.57 1016.47
1024.69 1024.51 1024.32 1024.03 1023.66 1023.19 1022.79 1022.57 1022.23 1022.02 1021.75 1021.46 1021.59 1021.71 1022.33 1021.94 1021.82 1021.62 1021.25 1020.79 1020.62 1020.67 1020.61 1020.41 1020.32 1020.57 1020.65 1020.54 1020.22 1020.39 1020.11 1020.08 1019.45 1018.50 1018.10 1017.64 1017.64 1017.09 1017.08 1016.79 1016.68 1016.63 1016.88 1016.84 1016.65
1024.73 1024.55 1024.30 1024.00 1023.58 1023.17 1022.72 1022.28 1022.12 1022.10 1021.83 1021.52 1021.57 1021.89 1022.97 1022.25 1022.21 1021.94 1021.77 1021.54 1020.95 1020.88 1020.54 1020.39 1020.45 1021.03 1020.80 1021.23 1021.28 1021.50 1021.38 1021.11 1020.24 1019.80 1019.47 1018.93 1018.58 1017.59 1017.56 1017.57 1017.49 1017.28 1017.06 1016.96 1016.97
1024.78 1024.58 1024.32 1023.99 1023.63 1023.16 1022.48 1022.35 1022.06 1021.81 1022.02 1022.00 1022.16 1022.37 1022.97 1023.48 1022.96 1022.42 1021.88 1021.72 1021.51 1021.50 1021.22 1021.12 1021.43 1021.98 1022.03 1021.87 1022.78 1022.78 1022.42 1022.08 1021.63 1021.01 1020.15 1019.77 1019.52 1018.65 1017.95 1017.81 1017.87 1017.66 1017.63 1017.23 1016.96
1024.83 1024.64 1024.39 1024.07 1023.75 1023.27 1022.89 1022.69 1023.11 1022.84 1023.11 1024.34 1024.27 1023.81 1023.42 1023.12 1022.76 1022.67 1022.15 1022.19 1021.83 1022.05 1022.68 1022.61 1022.71 1023.21 1023.05 1022.72 1022.83 1023.16 1023.01 1022.87 1022.24 1021.73 1021.20 1020.68 1020.32 1019.67 1019.02 1018.37 1018.26 1018.36 1018.29 1018.02 1017.65
1024.99 1024.76 1024.48 1024.14 1023.90 1023.64 1023.73 1024.55 1024.76 1024.76 1024.63 1024.47 1024.32 1024.06 1023.70 1023.57 1023.46 1023.17 1022.68 1023.23 1023.44 1023.55 1023.41 1023.74 1023.62 1023.31 1022.99 1022.79 1022.76 1023.00 1023.19 1023.23 1022.63 1021.98 1021.69 1021.48 1021.01 1020.67 1020.38 1020.39 1020.18 1020.05 1019.98 1019.75 1019.04
1025.14 1024.91 1024.68 1024.34 1023.94 1024.25 1025.04 1025.55 1025.15 1024.85 1024.83 1024.90 1024.41 1024.27 1024.03 1023.81 1023.82 1023.85 1023.80 1024.09 1024.68 1024.50 1024.67 1024.50 1024.43 1023.39 1023.13 1023.13 1023.10 1023.46 1023.70 1023.75 1023.68 1022.79 1022.23 1022.08 1021.76 1021.47 1021.17 1021.25 1021.24 1021.38 1021.67 1021.19 1020.89
1025.22 1024.89 1024.69 1024.40 1024.55 1025.11 1025.58 1025.72 1025.61 1025.46 1025.85 1025.93 1024.75 1024.23 1024.07 1023.98 1023.97 1024.00 1024.18 1024.77 1025.13 1025.41 1025.31 1025.30 1024.62 1024.02 1023.55 1023.41 1023.58 1023.69 1023.75 1023.95 1023.89 1023.82 1023.61 1023.21 1023.10 1022.25 1022.19 1022.16 1022.39 1022.84 1022.73 1022.54 1022.03
1024.99 1024.91 1024.60 1024.47 1025.09 1025.33 1025.64 1025.52 1025.28 1025.82 1027.07 1026.83 1025.30 1024.33 1024.24 1024.35 1024.42 1024.23 1024.42 1024.69 1025.73 1026.11 1026.11 1026.14 1025.45 1024.90 1024.27 1024.08 1023.78 1024.03 1023.90 1024.24 1024.29 1024.43 1024.74 1024.37 1024.40 1023.47 1023.16 1023.04 1023.47 1023.68 1023.79 1023.64 1023.28
1025.13 1024.84 1024.86 1025.12 1025.62 1025.75 1025.73 1025.43 1025.69 1026.81 1027.50 1027.04 1026.20 1025.46 1025.25 1025.19 1024.92 1024.74 1024.93 1025.30 1025.82 1026.37 1026.50 1026.54 1025.93 1025.52 1024.92 1024.40 1024.23 1024.10 1024.27 1024.86 1025.31 1025.64 1025.76 1025.36 1025.25 1024.87 1025.08 1025.46 1024.74 1024.17 1024.11 1023.88 1023.48
1025.45 1025.09 1024.89 1025.30 1026.26 1026.12 1026.03 1025.99 1027.25 1027.81 1028.77 1027.86 1027.04 1026.61 1026.56 1026.33 1025.88 1025.81 1026.07 1026.68 1027.45 1027.65 1028.40 1027.49 1026.69 1025.79 1025.34 1024.94 1024.67 1024.72 1025.40 1026.42 1027.03 1027.16 1027.05 1025.99 1025.74 1025.82 1025.79 1025.93 1025.86 1025.27 1024.60 1024.27 1023.81
1025.59 1025.72 1025.66 1025.86 1025.99 1026.19 1026.87 1027.39 1028.05 1028.76 1028.38 1028.06 1027.83 1027.41 1027.45 1027.29 1026.71 1026.58 1026.79 1027.72 1028.15 1028.76 1029.33 1029.06 1027.64 1026.96 1026.26 1025.96 1025.78 1025.73 1026.20 1027.01 1028.11 1028.43 1027.53 1026.27 1026.17 1025.91 1025.93 1026.06 1026.11 1026.04 1025.54 1024.66 1024.12
1025.53 1026.35 1026.28 1026.19 1025.91 1026.33 1027.42 1028.88 1028.63 1028.26 1027.84 1027.95 1028.21 1028.44 1028.58 1027.87 1027.85 1027.28 1027.41 1028.06 1028.33 1028.69 1029.63 1029.69 1028.68 1027.62 1027.16 1026.54 1026.32 1026.10 1026.59 1027.09 1027.68 1028.71 1028.47 1027.07 1026.59 1026.58 1026.09 1026.35 1026.27 1026.09 1025.89 1025.55 1025.05
1025.80 1026.55 1026.34 1026.44 1026.26 1026.79 1027.72 1029.14 1028.88 1028.17 1027.92 1028.08 1028.29 1028.61 1028.82 1028.23 1028.21 1028.15 1027.55 1027.65 1028.05 1028.42 1028.89 1029.99 1029.75 1028.44 1027.68 1027.14 1026.49 1026.26 1026.62 1027.05 1027.78 1028.73 1028.43 1027.62 1027.21 1026.84 1026.71 1026.78 1026.75 1026.48 1026.39 1026.10 1025.68
1026.33 1026.81 1026.34 1026.14 1026.46 1028.08 1029.27 1029.20 1028.76 1027.96 1027.58 1028.04 1028.54 1028.64 1028.35 1028.16 1028.03 1028.44 1027.99 1027.48 1027.56 1028.22 1028.55 1029.67 1030.15 1029.28 1028.81 1028.06 1027.27 1026.72 1026.76 1027.05 1027.68 1028.29 1028.73 1028.82 1027.90 1027.68 1027.75 1027.71 1027.44 1027.27 1026.95 1026.57 1026.00
1026.13 1027.21 1026.83 1026.19 1027.24 1029.15 1029.98 1029.11 1028.12 1027.91 1027.67 1027.82 1028.27 1027.89 1028.05 1028.03 1027.81 1028.38 1028.15 1027.49 1027.22 1027.75 1028.56 1029.43 1030.23 1030.50 1029.79 1028.52 1027.69 1027.26 1027.30 1027.45 1028.19 1028.75 1028.83 1028.98 1028.22 1028.01 1027.95 1027.93 1027.83 1027.63 1027.34 1026.87 1026.47
1026.06 1026.78 1026.64 1026.55 1027.72 1029.32 1029.38 1028.81 1028.15 1027.65 1027.82 1027.83 1027.89 1027.90 1027.87 1028.15 1028.27 1028.15 1028.14 1027.50 1027.51 1027.51 1028.28 1029.20 1030.28 1030.89 1029.98 1029.29 1028.29 1027.91 1027.54 1027.61 1028.13 1028.70 1029.02 1029.28 1028.36 1027.85 1028.00 1027.88 1027.91 1027.98 1027.67 1027.19 1026.86
1025.55 1026.69 1027.07 1027.30 1027.66 1027.91 1028.80 1028.52 1027.91 1027.36 1027.35 1027.46 1027.60 1027.91 1028.32 1028.46 1028.35 1028.41 1028.25 1027.76 1027.55 1027.78 1028.09 1028.93 1030.30 1031.16 1031.11 1029.83 1029.01 1028.55 1027.86 1027.75 1028.10 1028.75 1028.88 1028.67 1028.27 1028.04 1027.84 1027.95 1028.12 1028.10 1027.96 1027.85 1027.49
1024.85 1025.61 1025.81 1027.03 1027.32 1027.51 1027.42 1027.34 1027.40 1026.99 1027.26 1027.36 1027.48 1027.68 1028.05 1028.80 1028.54 1028.52 1028.48 1028.21 1028.05 1028.08 1028.61 1029.43 1030.64 1031.33 1030.76 1029.93 1029.24 1028.27 1027.56 1027.38 1027.71 1028.02 1028.67 1028.30 1028.37 1027.66 1027.72 1027.95 1028.08 1028.11 1028.02 1027.94 1027.81
1024.15 1025.05 1025.69 1026.25 1026.53 1026.93 1027.02 1026.85 1026.00 1026.50 1026.69 1027.10 1027.33 1026.97 1027.87 1028.09 1027.83 1027.84 1028.59 1028.50 1028.53 1028.82 1029.20 1029.94 1030.78 1031.38 1030.86 1029.88 1029.06 1028.10 1027.19 1027.00 1027.20 1027.45 1027.62 1027.81 1027.80 1026.73 1027.22 1027.63 1027.85 1027.89 1027.88 1027.93 1027.93
1023.13 1023.65 1023.89 1025.32 1026.32 1026.55 1025.87 1025.21 1025.31 1025.25 1026.01 1025.83 1026.34 1027.15 1027.77 1027.58 1027.87 1027.77 1028.44 1028.72 1028.87 1029.36 1029.83 1030.49 1031.40 1032.14 1031.49 1030.07 1029.13 1027.89 1026.31 1026.33 1026.48 1026.54 1026.57 1027.05 1026.63 1026.65 1027.30 1027.35 1027.37 1027.38 1027.43 1027.56 1027.84
Thickness
5631 5632 5634 5637 5636 5635 5637 5637 5636 5633 5630 5628 5628 5627 5627 5627 5627 5624 5617 5610 5615 5618 5623 5624 5625 5621 5621 5618 5620 5618 5600 5602 5624 5628 5635 5644 5646 5659 5667 5671 5672 5674 5674 5682 5680
5627 5630 5632 5633 5633 5632 5632 5633 5632 5631 5628 5628 5626 5625 5625 5624 5626 5614 5608 5610 5612 5613 5613 5611 5610 5608 5603 5605 5605 5600 5591 5603 5621 5625 5624 5635 5636 5644 5653 5656 5659 5664 5667 5672 5674
5626 5627 5629 5629 5628 5628 5630 5629 5628 5626 5625 5626 5623 5624 5625 5623 5620 5605 5604 5605 5605 5605 5604 5601 5599 5596 5591 5590 5591 5591 5587 5602 5606 5613 5621 5628 5633 5637 5643 5642 5650 5654 5655 5659 5664
5625 5624 5626 5625 5626 5626 5627 5627 5625 5623 5623 5624 5622 5624 5623 5618 5603 5599 5599 5597 5596 5596 5591 5585 5580 5571 5569 5567 5572 5577 5585 5586 5591 5599 5611 5613 5623 5624 5631 5637 5642 5652 5652 5653 5652
5621 5621 5621 5622 5623 5624 5625 5625 5623 5621 5622 5622 5621 5621 5621 5605 5593 5597 5594 5592 5588 5583 5574 5565 5557 5556 5554 5549 5558 5563 5567 5575 5580 5589 5598 5609 5613 5614 5619 5626 5636 5642 5642 5643 5643
5617 5620 5618 5617 5620 5623 5624 5624 5621 5619 5619 5620 5619 5617 5617 5595 5594 5591 5589 5585 5576 5569 5560 5555 5549 5550 5546 5547 5552 5547 5553 5560 5572 5581 5588 5593 5600 5606 5609 5615 5620 5626 5627 5629 5633
5614 5616 5615 5616 5618 5621 5622 5621 5620 5619 5617 5615 5615 5611 5603 5590 5592 5588 5585 5579 5570 5560 5552 5550 5548 5547 5542 5544 5543 5546 5548 5554 5564 5574 5581 5589 5585 5586 5595 5601 5603 5609 5613 5616 5622
5611 5613 5613 5613 5615 5618 5620 5619 5619 5617 5615 5614 5609 5606 5591 5593 5588 5585 5581 5578 5569 5559 5553 5551 5549 5544 5541 5538 5541 5539 5541 5535 5550 5557 5563 5575 5568 5579 5579 5585 5592 5599 5599 5604 5613
5608 5609 5610 5611 5613 5616 5618 5619 5617 5613 5612 5612 5609 5602 5584 5586 5580 5579 5574 5567 5564 5556 5554 5552 5548 5537 5536 5526 5524 5515 5526 5527 5537 5542 5546 5554 5559 5574 5572 5574 5580 5585 5592 5598 5603
5604 5605 5606 5608 5610 5613 5617 5616 5616 5615 5609 5604 5601 5599 5585 5573 5573 5573 5570 5564 5559 5550 5550 5544 5531 5521 5515 5513 5495 5510 5510 5512 5519 5529 5535 5537 5542 5552 5561 5568 5570 5576 5578 5587 5595
5601 5601 5603 5605 5606 5609 5612 5610 5602 5604 5595 5580 5580 5580 5582 5579 5576 5569 5567 5558 5555 5547 5533 5529 5519 5510 5513 5518 5515 5509 5506 5500 5511 5526 5523 5524 5528 5540 5552 5557 5559 5567 5570 5574 5581
5594 5596 5598 5600 5601 5602 5602 5591 5589 5590 5580 5581 5579 5577 5577 5573 5566 5564 5561 5547 5537 5525 5527 5513 5511 5516 5517 5518 5515 5510 5503 5494 5507 5518 5521 5516 5525 5532 5534 5535 5540 5542 5546 5552 5564
5588 5590 5592 5595 5598 5595 5586 5580 5582 5582 5575 5578 5576 5572 5572 5570 5562 5557 5550 5539 5524 5520 5511 5511 5510 5516 5514 5504 5504 5497 5495 5491 5495 5502 5514 5506 5527 5526 5532 5527 5528 5528 5527 5535 5543
5583 5587 5588 5589 5589 5585 5579 5575 5573 5572 5532 5558 5569 5572 5570 5566 5563 5556 5546 5534 5521 5512 5508 5506 5505 5503 5507 5507 5498 5498 5498 5495 5496 5487 5488 5498 5492 5524 5515 5517 5515 5510 5512 5517 5525
5581 5582 5586 5585 5582 5579 5578 5575 5575 5567 5537 5559 5558 5566 5562 5563 5560 5555 5544 5533 5516 5508 5505 5500 5495 5493 5499 5499 5498 5497 5495 5491 5494 5493 5474 5493 5463 5510 5496 5499 5498 5501 5501 5503 5509
5575 5579 5577 5576 5574 5573 5571 5573 5568 5544 5546 5532 5549 5548 5553 5552 5554 5550 5536 5528 5520 5506 5500 5497 5493 5493 5497 5496 5496 5491 5491 5478 5472 5463 5427 5485 5472 5480 5473 5477 5486 5492 5494 5498 5503
5565 5571 5575 5571 5563 5563 5564 5562 5541 5545 5524 5533 5539 5544 5542 5539 5542 5537 5527 5514 5492 5472 5458 5480 5488 5493 5494 5491 5490 5482 5458 5403 5431 5420 5435 5480 5476 5467 5473 5470 5471 5477 5485 5490 5496
5557 5558 5562 5563 5562 5558 5551 5539 5545 5485 5495 5535 5538 5541 5536 5533 5538 5530 5519 5503 5496 5463 5457 5458 5467 5478 5483 5486 5485 5485 5481 5469 5416 5454 5444 5478 5485 5476 5475 5471 5467 5467 5474 5482 5487
5551 5548 5550 5554 5556 5553 5540 5506 5531 5509 5532 5537 5529 5506 5507 5529 5528 5526 5516 5497 5487 5475 5446 5464 5440 5472 5477 5479 5478 5479 5469 5472 5454 5429 5441 5464 5467 5463 5469 5461 5462 5466 5466 5467 5472
5542 5538 5543 5544 5546 5541 5521 5533 5512 5529 5536 5530 5510 5507 5487 5522 5524 5518 5514 5510 5504 5496 5474 5451 5451 5452 5469 5475 5478 5477 5479 5448 5433 5424 5422 5440 5453 5469 5457 5455 5455 5454 5456 5459 5461
5527 5524 5536 5540 5538 5521 5507 5497 5514 5528 5535 5516 5479 5509 5524 5511 5518 5512 5512 5512 5506 5490 5477 5468 5460 5452 5452 5465 5475 5472 5449 5475 5465 5458 5432 5440 5444 5453 5447 5445 5446 5448 5451 5452 5455
5520 5506 5524 5531 5513 5473 5484 5500 5527 5526 5527 5521 5511 5516 5520 5515 5518 5511 5511 5508 5505 5497 5483 5471 5460 5440 5433 5452 5468 5473 5465 5466 5437 5441 5448 5443 5447 5445 5443 5443 5443 5443 5444 5448 5449
5507 5507 5517 5521 5507 5481 5484 5515 5519 5520 5518 5516 5516 5516 5517 5509 5496 5507 5508 5510 5502 5497 5484 5470 5438 5418 5436 5455 5453 5453 5467 5469 5455 5448 5426 5436 5433 5449 5445 5445 5441 5438 5438 5440 5442
5509 5507 5506 5504 5502 5503 5488 5497 5507 5517 5516 5516 5516 5513 5508 5491 5506 5501 5504 5507 5500 5494 5490 5472 5448 5445 5435 5447 5447 5446 5455 5460 5458 5415 5427 5435 5429 5436 5447 5444 5439 5435 5433 5425 5425
5504 5507 5508 5501 5501 5501 5505 5505 5507 5502 5512 5511 5514 5510 5507 5471 5472 5482 5500 5501 5497 5495 5481 5469 5432 5425 5440 5438 5446 5449 5456 5464 5456 5460 5439 5424 5418 5442 5439 5441 5436 5430 5427 5424 5425
5500 5500 5498 5493 5498 5502 5503 5498 5512 5508 5507 5508 5506 5510 5500 5500 5502 5484 5492 5497 5493 5486 5479 5463 5435 5427 5443 5449 5462 5461 5471 5467 5461 5452 5454 5435 5434 5453 5447 5442 5433 5427 5427 5426 5423
5503 5503 5512 5499 5493 5497 5502 5513 5511 5512 5508 5515 5509 5501 5498 5501 5499 5506 5497 5491 5492 5481 5471 5463 5432 5408 5430 5413 5416 5435 5452 5470 5461 5450 5469 5458 5453 5449 5446 5445 5438 5434 5433 5426 5424